START_TIME,STEP,MOV.,H8,t_acc.,H43,t_acc.,M25,t_acc.,H9,t_acc.
1979-07-03 18:00:30.350 ,0,1,0.,12.0,0.,12.0,0.,12.0,0.,12.0
1979-07-03 18:00:42.350 ,0,1,0.,12.0,0.,12.0,0.,12.0,0.,12.0
1979-07-03 18:00:54.350 ,4,1,0.,12.0,0.,12.0,0.,12.0,0.,12.0
1979-07-03 18:01:06.350 ,4,1,0.,12.0,0.,12.0,0.,12.0,0.,12.0
1979-07-03 18:01:18.350 ,7,1,0.,12.0,0.,12.0,0.,12.0,0.,12.0
1979-07-03 18:01:30.350 ,7,1,0.,12.0,0.,12.0,0.,12.0,0.,12.0
1979-07-03 18:01:42.350 ,3,1,0.,12.0,0.,12.0,0.,12.0,0.,12.0
1979-07-03 18:01:54.350 ,3,1,0.,12.0,0.,12.0,0.,12.0,0.,12.0
1979-07-03 18:02:06.350 ,0,1,0.,12.0,0.,12.0,0.,12.0,0.,12.0
1979-07-03 18:02:18.350 ,0,1,0.,12.0,0.,12.0,0.,12.0,0.,12.0
1979-07-03 18:02:30.350 ,4,1,0.,12.0,0.,12.0,0.,12.0,0.,12.0
1979-07-03 18:02:42.350 ,4,1,0.,12.0,0.,12.0,0.,12.0,0.,12.0
1979-07-03 18:02:54.350 ,7,1,0.,12.0,0.,12.0,0.,12.0,0.,12.0
1979-07-03 18:03:06.350 ,7,1,0.,12.0,0.,12.0,0.,12.0,0.,12.0
1979-07-03 18:03:18.350 ,3,1,0.,12.0,0.,12.0,0.,12.0,0.,12.0
1979-07-03 18:03:30.350 ,3,1,0.,12.0,0.,12.0,0.,12.0,0.,12.0
1979-07-03 18:03:42.350 ,0,1,0.,12.0,0.,12.0,0.,12.0,0.,12.0
1979-07-03 18:03:54.350 ,0,1,0.,12.0,0.,12.0,0.,12.0,0.,12.0
1979-07-03 18:04:06.350 ,4,1,0.,12.0,0.,12.0,0.,12.0,0.,12.0
1979-07-03 18:04:18.350 ,4,1,0.,12.0,0.,12.0,0.,12.0,0.,12.0
1979-07-03 18:04:30.350 ,7,1,0.,12.0,0.,12.0,0.,12.0,0.,12.0
1979-07-03 18:04:42.350 ,7,1,0.,12.0,0.,12.0,0.,12.0,0.,12.0
1979-07-03 18:04:54.350 ,3,1,0.,12.0,0.,12.0,0.,12.0,0.,12.0
1979-07-03 18:05:06.350 ,3,1,0.,12.0,0.,12.0,0.,12.0,0.,12.0
1979-07-03 18:05:18.350 ,0,1,0.,12.0,0.,12.0,0.,12.0,0.,12.0
1979-07-03 18:05:30.350 ,0,1,2.,12.0,0.,12.0,0.,12.0,0.,12.0
1979-07-03 18:05:42.350 ,0,0,0.,12.0,0.,12.0,0.,12.0,0.,12.0
1979-07-03 18:05:54.350 ,0,0,0.,12.0,0.,12.0,0.,12.0,0.,12.0
1979-07-03 18:06:06.350 ,0,0,0.,12.0,0.,12.0,0.,12.0,0.,12.0
1979-07-03 18:06:18.350 ,0,0,0.,12.0,0.,12.0,0.,12.0,0.,12.0
1979-07-03 18:06:30.350 ,5,0,0.,12.0,0.,12.0,0.,12.0,0.,12.0
1979-07-03 18:06:42.350 ,5,0,0.,12.0,0.,12.0,0.,12.0,0.,12.0
1979-07-03 18:06:54.350 ,5,0,0.,12.0,0.,12.0,0.,12.0,0.,12.0
1979-07-03 18:07:06.350 ,5,0,0.,12.0,0.,12.0,0.,12.0,0.,12.0
1979-07-03 18:07:18.350 ,4,0,0.,12.0,0.,12.0,0.,12.0,0.,12.0
1979-07-03 18:07:30.350 ,4,0,0.,12.0,0.,12.0,0.,12.0,0.,12.0
1979-07-03 18:07:42.350 ,4,0,0.,12.0,0.,12.0,0.,12.0,0.,12.0
1979-07-03 18:07:54.350 ,4,0,0.,12.0,0.,12.0,0.,12.0,0.,12.0
1979-07-03 18:08:06.350 ,3,0,0.,12.0,0.,12.0,0.,12.0,0.,12.0
1979-07-03 18:08:18.350 ,3,0,0.,12.0,0.,12.0,0.,12.0,0.,12.0
1979-07-03 18:08:30.350 ,3,0,0.,12.0,0.,12.0,0.,12.0,0.,12.0
1979-07-03 18:08:42.350 ,3,0,0.,12.0,0.,12.0,0.,12.0,0.,12.0
1979-07-03 18:08:54.350 ,2,0,0.,12.0,0.,12.0,0.,12.0,0.,12.0
1979-07-03 18:09:06.350 ,2,0,0.,12.0,0.,12.0,0.,12.0,0.,12.0
1979-07-03 18:09:18.350 ,2,0,0.,12.0,0.,12.0,0.,12.0,0.,12.0
1979-07-03 18:09:30.350 ,2,0,0.,12.0,0.,12.0,0.,12.0,0.,12.0
1979-07-03 18:09:42.350 ,1,0,0.,12.0,0.,12.0,0.,12.0,0.,12.0
1979-07-03 18:09:54.350 ,1,0,0.,12.0,0.,12.0,0.,12.0,0.,12.0
1979-07-03 18:10:06.350 ,1,0,0.,12.0,0.,12.0,0.,12.0,0.,12.0
1979-07-03 18:10:18.350 ,1,0,0.,12.0,0.,12.0,0.,12.0,0.,12.0
1979-07-03 18:10:30.350 ,0,0,0.,12.0,0.,12.0,0.,12.0,0.,12.0
1979-07-03 18:10:42.350 ,0,0,0.,12.0,0.,12.0,0.,12.0,0.,12.0
1979-07-03 18:10:54.350 ,0,0,0.,12.0,0.,12.0,0.,12.0,0.,12.0
1979-07-03 18:11:06.350 ,0,0,0.,12.0,0.,12.0,0.,12.0,0.,12.0
1979-07-03 18:17:30.350 ,0,0,,0,,0,,0,,0
1979-07-03 18:17:42.350 ,0,0,0.,12.0,0.,12.0,0.,12.0,0.,12.0
1979-07-03 18:17:42.350 ,7,0,0.,12.0,0.,12.0,0.,12.0,0.,12.0
1979-07-03 18:17:54.350 ,7,0,0.,12.0,0.,12.0,0.,12.0,0.,12.0
1979-07-03 18:18:06.350 ,7,0,0.,12.0,0.,12.0,0.,12.0,0.,12.0
1979-07-03 18:18:18.350 ,7,0,0.,12.0,0.,12.0,0.,12.0,0.,12.0
1979-07-03 18:18:30.350 ,6,0,0.,12.0,0.,12.0,0.,12.0,0.,12.0
1979-07-03 18:18:42.350 ,6,0,0.,12.0,0.,12.0,0.,12.0,0.,12.0
1979-07-03 18:18:54.350 ,6,0,0.,12.0,0.,12.0,0.,12.0,0.,12.0
1979-07-03 18:19:06.350 ,6,0,0.,12.0,0.,12.0,0.,12.0,0.,12.0
1979-07-03 18:19:18.350 ,5,0,0.,12.0,0.,12.0,0.,12.0,0.,12.0
1979-07-03 18:19:30.350 ,5,0,0.,12.0,0.,12.0,0.,12.0,0.,12.0
1979-07-03 18:19:42.350 ,5,0,0.,12.0,0.,12.0,0.,12.0,0.,12.0
1979-07-03 18:19:54.350 ,5,0,0.,12.0,0.,12.0,0.,12.0,0.,12.0
1979-07-03 18:20:06.350 ,4,0,0.,12.0,0.,12.0,0.,12.0,0.,12.0
1979-07-03 18:20:18.350 ,4,0,0.,12.0,0.,12.0,0.,12.0,0.,12.0
1979-07-03 18:20:30.350 ,4,0,0.,12.0,0.,12.0,0.,12.0,0.,12.0
1979-07-03 18:20:42.350 ,4,0,0.,12.0,0.,12.0,0.,12.0,0.,12.0
1979-07-03 18:20:54.350 ,3,0,0.,12.0,0.,12.0,0.,12.0,0.,12.0
1979-07-03 18:21:06.350 ,3,0,0.,12.0,0.,12.0,0.,12.0,0.,12.0
1979-07-03 18:21:18.350 ,3,0,0.,12.0,0.,12.0,0.,12.0,0.,12.0
1979-07-03 18:21:30.350 ,3,0,0.,12.0,0.,12.0,0.,12.0,0.,12.0
1979-07-03 18:21:42.350 ,2,0,0.,12.0,0.,12.0,0.,12.0,0.,12.0
1979-07-03 18:21:54.350 ,2,0,0.,12.0,0.,12.0,0.,12.0,0.,12.0
1979-07-03 18:22:06.350 ,2,0,0.,12.0,0.,12.0,0.,12.0,0.,12.0
1979-07-03 18:22:18.350 ,2,0,0.,12.0,0.,12.0,0.,12.0,0.,12.0
1979-07-03 18:22:30.350 ,1,0,0.,12.0,0.,12.0,0.,12.0,0.,12.0
1979-07-03 18:22:42.350 ,1,0,0.,12.0,0.,12.0,0.,12.0,0.,12.0
1979-07-03 18:22:54.350 ,1,0,0.,12.0,0.,12.0,0.,12.0,0.,12.0
1979-07-03 18:23:06.350 ,1,0,0.,12.0,0.,12.0,0.,12.0,0.,12.0
1979-07-03 18:23:18.350 ,0,0,0.,12.0,0.,12.0,0.,12.0,0.,12.0
1979-07-03 18:23:30.350 ,0,0,0.,12.0,0.,12.0,0.,12.0,0.,12.0
1979-07-03 18:23:42.350 ,0,0,0.,12.0,0.,12.0,0.,12.0,0.,12.0
1979-07-03 18:23:54.350 ,0,0,0.,12.0,0.,12.0,0.,12.0,0.,12.0
1979-07-03 18:24:06.350 ,0,0,0.,12.0,0.,12.0,0.,12.0,0.,12.0
1979-07-03 18:24:18.350 ,0,0,0.,12.0,0.,12.0,0.,12.0,0.,12.0
1979-07-03 18:24:30.350 ,0,0,0.,12.0,0.,12.0,0.,12.0,0.,12.0
1979-07-03 18:24:42.350 ,0,0,0.,12.0,0.,12.0,0.,12.0,0.,12.0
1979-07-03 18:24:54.350 ,1,0,0.,12.0,0.,12.0,0.,12.0,0.,12.0
1979-07-03 18:25:06.350 ,1,0,0.,12.0,0.,12.0,0.,12.0,0.,12.0
1979-07-03 18:25:18.350 ,1,0,0.,12.0,0.,12.0,0.,12.0,0.,12.0
1979-07-03 18:25:30.350 ,1,0,0.,12.0,0.,12.0,0.,12.0,0.,12.0
1979-07-03 18:25:42.350 ,2,0,0.,12.0,0.,12.0,0.,12.0,0.,12.0
1979-07-03 18:25:54.350 ,2,0,0.,12.0,0.,12.0,0.,12.0,0.,12.0
1979-07-03 18:26:06.350 ,2,0,0.,12.0,0.,12.0,0.,12.0,0.,12.0
1979-07-03 18:26:18.350 ,2,0,0.,12.0,0.,12.0,0.,12.0,0.,12.0
1979-07-03 18:26:30.350 ,3,0,0.,12.0,0.,12.0,0.,12.0,0.,12.0
1979-07-03 18:26:42.350 ,3,0,0.,12.0,0.,12.0,0.,12.0,0.,12.0
1979-07-03 18:26:54.350 ,3,0,0.,12.0,0.,12.0,0.,12.0,0.,12.0
1979-07-03 18:27:06.350 ,3,0,0.,12.0,0.,12.0,0.,12.0,0.,12.0
1979-07-03 18:27:18.350 ,4,0,0.,12.0,0.,12.0,0.,12.0,0.,12.0
1979-07-03 18:27:30.350 ,4,0,0.,12.0,0.,12.0,0.,12.0,0.,12.0
1979-07-03 18:27:42.350 ,4,0,0.,12.0,0.,12.0,0.,12.0,0.,12.0
1979-07-03 18:27:54.350 ,4,0,0.,12.0,0.,12.0,0.,12.0,0.,12.0
1979-07-03 18:28:06.350 ,5,0,0.,12.0,0.,12.0,0.,12.0,0.,12.0
1979-07-03 18:28:18.350 ,5,0,0.,12.0,0.,12.0,0.,12.0,0.,12.0
1979-07-03 18:28:30.350 ,5,0,0.,12.0,0.,12.0,0.,12.0,0.,12.0
1979-07-03 18:28:42.350 ,5,0,0.,12.0,0.,12.0,0.,12.0,0.,12.0
1979-07-03 18:28:54.350 ,6,0,0.,12.0,0.,12.0,0.,12.0,0.,12.0
1979-07-03 18:29:06.350 ,6,0,0.,12.0,0.,12.0,0.,12.0,0.,12.0
1979-07-03 18:29:18.350 ,6,0,0.,12.0,0.,12.0,0.,12.0,0.,12.0
1979-07-03 18:29:30.350 ,6,0,0.,12.0,0.,12.0,0.,12.0,0.,12.0
1979-07-03 18:29:42.350 ,7,0,0.,12.0,0.,12.0,0.,12.0,0.,12.0
1979-07-03 18:29:54.350 ,7,0,0.,12.0,0.,12.0,0.,12.0,0.,12.0
1979-07-03 18:30:06.350 ,7,0,0.,12.0,0.,12.0,0.,12.0,0.,12.0
1979-07-03 18:30:18.350 ,7,0,0.,12.0,0.,12.0,0.,12.0,0.,12.0
1979-07-03 18:31:18.350 ,0,0,0.,12.0,0.,12.0,0.,12.0,0.,12.0
1979-07-03 18:31:30.350 ,0,0,0.,12.0,0.,12.0,0.,12.0,0.,12.0
1979-07-03 18:31:42.350 ,0,0,0.,12.0,0.,12.0,0.,12.0,0.,12.0
1979-07-03 18:31:54.350 ,0,0,0.,12.0,0.,12.0,0.,12.0,0.,12.0
1979-07-03 18:32:06.350 ,5,0,0.,12.0,0.,12.0,0.,12.0,0.,12.0
1979-07-03 18:32:18.350 ,5,0,0.,12.0,0.,12.0,0.,12.0,0.,12.0
1979-07-03 18:32:30.350 ,5,0,0.,12.0,0.,12.0,0.,12.0,0.,12.0
1979-07-03 18:32:42.350 ,5,0,0.,12.0,0.,12.0,0.,12.0,0.,12.0
1979-07-03 18:32:54.350 ,4,0,0.,12.0,0.,12.0,0.,12.0,0.,12.0
1979-07-03 18:33:06.350 ,4,0,0.,12.0,0.,12.0,0.,12.0,0.,12.0
1979-07-03 18:33:18.350 ,4,0,0.,12.0,0.,12.0,0.,12.0,0.,12.0
1979-07-03 18:33:30.350 ,4,0,0.,12.0,0.,12.0,0.,12.0,0.,12.0
1979-07-03 18:33:42.350 ,3,0,0.,12.0,0.,12.0,0.,12.0,0.,12.0
1979-07-03 18:33:54.350 ,3,0,0.,12.0,0.,12.0,0.,12.0,0.,12.0
1979-07-03 18:34:06.350 ,3,0,0.,12.0,0.,12.0,0.,12.0,0.,12.0
1979-07-03 18:34:18.350 ,3,0,0.,12.0,0.,12.0,0.,12.0,0.,12.0
1979-07-03 18:34:30.350 ,2,0,0.,12.0,0.,12.0,0.,12.0,0.,12.0
1979-07-03 18:34:42.350 ,2,0,0.,12.0,0.,12.0,0.,12.0,0.,12.0
1979-07-03 18:34:54.350 ,2,0,0.,12.0,0.,12.0,0.,12.0,0.,12.0
1979-07-03 18:35:06.350 ,2,0,0.,12.0,0.,12.0,0.,12.0,0.,12.0
1979-07-03 18:35:18.350 ,1,0,0.,12.0,0.,12.0,0.,12.0,0.,12.0
1979-07-03 18:35:30.350 ,1,0,0.,12.0,0.,12.0,0.,12.0,0.,12.0
1979-07-03 18:35:42.350 ,1,0,0.,12.0,0.,12.0,0.,12.0,0.,12.0
1979-07-03 18:35:54.350 ,1,0,0.,12.0,0.,12.0,0.,12.0,0.,12.0
1979-07-03 18:36:06.350 ,0,0,0.,12.0,0.,12.0,0.,12.0,0.,12.0
1979-07-03 18:36:18.350 ,0,0,0.,12.0,0.,12.0,0.,12.0,0.,12.0
1979-07-03 18:36:30.350 ,0,0,0.,12.0,0.,12.0,0.,12.0,0.,12.0
1979-07-03 18:36:42.350 ,0,0,0.,12.0,0.,12.0,0.,12.0,0.,12.0
1979-07-03 18:36:54.350 ,0,0,0.,12.0,0.,12.0,0.,12.0,0.,12.0
1979-07-03 18:37:06.350 ,0,0,0.,12.0,0.,12.0,0.,12.0,0.,12.0
1979-07-03 18:37:18.350 ,0,0,0.,12.0,0.,12.0,0.,12.0,0.,12.0
1979-07-03 18:37:30.350 ,0,0,0.,12.0,0.,12.0,0.,12.0,0.,12.0
1979-07-03 18:37:42.350 ,1,0,0.,12.0,0.,12.0,0.,12.0,0.,12.0
1979-07-03 18:37:54.350 ,1,0,0.,12.0,0.,12.0,0.,12.0,0.,12.0
1979-07-03 18:38:06.350 ,1,0,0.,12.0,0.,12.0,0.,12.0,0.,12.0
1979-07-03 18:38:18.350 ,1,0,0.,12.0,0.,12.0,0.,12.0,0.,12.0
1979-07-03 18:38:30.350 ,2,0,0.,12.0,0.,12.0,0.,12.0,0.,12.0
1979-07-03 18:38:42.350 ,2,0,0.,12.0,0.,12.0,0.,12.0,0.,12.0
1979-07-03 18:38:54.350 ,2,0,0.,12.0,0.,12.0,0.,12.0,0.,12.0
1979-07-03 18:39:06.350 ,2,0,0.,12.0,0.,12.0,0.,12.0,0.,12.0
1979-07-03 18:39:18.350 ,3,0,0.,12.0,0.,12.0,0.,12.0,0.,12.0
1979-07-03 18:39:30.350 ,3,0,0.,12.0,0.,12.0,0.,12.0,0.,12.0
1979-07-03 18:39:42.350 ,3,0,0.,12.0,0.,12.0,0.,12.0,0.,12.0
1979-07-03 18:39:54.350 ,3,0,0.,12.0,0.,12.0,0.,12.0,0.,12.0
1979-07-03 18:40:06.350 ,4,0,0.,12.0,0.,12.0,0.,12.0,0.,12.0
1979-07-03 18:40:18.350 ,4,0,0.,12.0,0.,12.0,0.,12.0,0.,12.0
1979-07-03 18:40:30.350 ,4,0,0.,12.0,0.,12.0,0.,12.0,0.,12.0
1979-07-03 18:40:42.350 ,4,0,0.,12.0,0.,12.0,0.,12.0,0.,12.0
1979-07-03 18:40:54.350 ,5,0,0.,12.0,0.,12.0,0.,12.0,0.,12.0
1979-07-03 18:41:06.350 ,5,0,0.,12.0,0.,12.0,0.,12.0,0.,12.0
1979-07-03 18:41:18.350 ,5,0,0.,12.0,0.,12.0,0.,12.0,0.,12.0
1979-07-03 18:41:30.350 ,5,0,0.,12.0,0.,12.0,0.,12.0,0.,12.0
1979-07-03 18:41:42.350 ,6,0,0.,12.0,0.,12.0,0.,12.0,0.,12.0
1979-07-03 18:41:54.350 ,6,0,0.,12.0,0.,12.0,0.,12.0,0.,12.0
1979-07-03 18:42:06.350 ,6,0,0.,12.0,0.,12.0,0.,12.0,0.,12.0
1979-07-03 18:42:18.350 ,6,0,0.,12.0,0.,12.0,0.,12.0,0.,12.0
1979-07-03 18:42:30.350 ,7,0,0.,12.0,0.,12.0,0.,12.0,0.,12.0
1979-07-03 18:42:42.350 ,7,0,0.,12.0,0.,12.0,0.,12.0,0.,12.0
1979-07-03 18:42:54.350 ,7,0,0.,12.0,0.,12.0,0.,12.0,0.,12.0
1979-07-03 18:43:06.350 ,7,0,0.,12.0,0.,12.0,0.,12.0,0.,12.0
1979-07-03 18:43:18.350 ,3,1,0.,12.0,0.,12.0,0.,12.0,0.,12.0
1979-07-03 18:43:30.350 ,3,1,0.,12.0,0.,12.0,0.,12.0,0.,12.0
1979-07-03 18:43:42.350 ,0,1,0.,12.0,0.,12.0,0.,12.0,0.,12.0
1979-07-03 18:43:54.350 ,0,1,0.,12.0,0.,12.0,0.,12.0,0.,12.0
1979-07-03 18:44:06.350 ,4,1,0.,12.0,0.,12.0,0.,12.0,0.,12.0
1979-07-03 18:44:18.350 ,4,1,0.,12.0,0.,12.0,0.,12.0,0.,12.0
1979-07-03 18:44:30.350 ,7,1,0.,12.0,0.,12.0,0.,12.0,0.,12.0
1979-07-03 18:44:42.350 ,7,1,0.,12.0,0.,12.0,0.,12.0,0.,12.0
1979-07-03 18:44:54.350 ,3,1,0.,12.0,0.,12.0,0.,12.0,0.,12.0
1979-07-03 18:45:06.350 ,3,1,0.,12.0,0.,12.0,0.,12.0,0.,12.0
1979-07-03 18:45:18.350 ,0,1,0.,12.0,0.,12.0,0.,12.0,0.,12.0
1979-07-03 18:45:30.350 ,0,1,0.,12.0,0.,12.0,0.,12.0,0.,12.0
1979-07-03 18:45:42.350 ,4,1,0.,12.0,0.,12.0,0.,12.0,0.,12.0
1979-07-03 18:45:54.350 ,4,1,0.,12.0,0.,12.0,0.,12.0,0.,12.0
1979-07-03 18:46:06.350 ,7,1,0.,12.0,0.,12.0,0.,12.0,0.,12.0
1979-07-03 18:46:18.350 ,7,1,0.,12.0,0.,12.0,0.,12.0,0.,12.0
1979-07-03 18:46:30.350 ,3,1,0.,12.0,0.,12.0,0.,12.0,0.,12.0
1979-07-03 18:46:42.350 ,3,1,0.,12.0,0.,12.0,0.,12.0,0.,12.0
1979-07-03 18:46:54.350 ,0,1,0.,12.0,0.,12.0,0.,12.0,0.,12.0
1979-07-03 18:47:06.350 ,0,1,0.,12.0,0.,12.0,0.,12.0,0.,12.0
1979-07-03 18:47:18.350 ,4,1,0.,12.0,0.,12.0,0.,12.0,0.,12.0
1979-07-03 18:47:30.350 ,4,1,0.,12.0,0.,12.0,0.,12.0,0.,12.0
1979-07-03 18:47:42.350 ,7,1,0.,12.0,0.,12.0,0.,12.0,0.,12.0
1979-07-03 18:47:54.350 ,7,1,0.,12.0,0.,12.0,0.,12.0,0.,12.0
1979-07-03 18:48:06.350 ,3,1,0.,12.0,0.,12.0,0.,12.0,0.,12.0
1979-07-03 18:48:18.350 ,3,1,0.,12.0,0.,12.0,0.,12.0,0.,12.0
1979-07-03 18:48:30.350 ,0,1,0.,12.0,0.,12.0,0.,12.0,0.,12.0
1979-07-03 18:48:42.350 ,0,1,0.,12.0,0.,12.0,0.,12.0,0.,12.0
1979-07-03 18:48:54.350 ,4,1,0.,12.0,0.,12.0,0.,12.0,0.,12.0
1979-07-03 18:49:06.350 ,4,1,0.,12.0,0.,12.0,0.,12.0,0.,12.0
1979-07-03 18:49:18.350 ,7,1,0.,12.0,0.,12.0,0.,12.0,0.,12.0
1979-07-03 18:49:30.350 ,7,1,0.,12.0,0.,12.0,0.,12.0,0.,12.0
1979-07-03 18:49:42.350 ,3,1,0.,12.0,0.,12.0,0.,12.0,0.,12.0
1979-07-03 18:49:54.350 ,3,1,0.,12.0,0.,12.0,0.,12.0,0.,12.0
1979-07-03 18:50:06.350 ,0,1,0.,12.0,0.,12.0,0.,12.0,0.,12.0
1979-07-03 18:50:18.350 ,0,1,0.,12.0,0.,12.0,0.,12.0,0.,12.0
1979-07-03 18:50:30.350 ,4,1,0.,12.0,0.,12.0,0.,12.0,0.,12.0
1979-07-03 18:50:42.350 ,4,1,0.,12.0,0.,12.0,0.,12.0,0.,12.0
1979-07-03 18:50:54.350 ,7,1,0.,12.0,0.,12.0,0.,12.0,0.,12.0
1979-07-03 18:51:06.350 ,7,1,0.,12.0,0.,12.0,0.,12.0,0.,12.0
1979-07-03 18:51:18.350 ,3,1,0.,12.0,0.,12.0,0.,12.0,0.,12.0
1979-07-03 18:51:30.350 ,3,1,0.,12.0,0.,12.0,0.,12.0,0.,12.0
1979-07-03 18:51:42.350 ,0,1,0.,12.0,0.,12.0,0.,12.0,0.,12.0
1979-07-03 18:51:54.350 ,0,1,0.,12.0,0.,12.0,0.,12.0,0.,12.0
1979-07-03 18:52:06.350 ,4,1,0.,12.0,0.,12.0,0.,12.0,0.,12.0
1979-07-03 18:52:18.350 ,4,1,0.,12.0,0.,12.0,0.,12.0,0.,12.0
1979-07-03 18:52:30.350 ,7,1,0.,12.0,0.,12.0,0.,12.0,0.,12.0
1979-07-03 18:52:42.350 ,7,1,0.,12.0,0.,12.0,0.,12.0,0.,12.0
1979-07-03 18:52:54.350 ,3,1,0.,12.0,0.,12.0,0.,12.0,0.,12.0
1979-07-03 18:53:06.350 ,3,1,0.,12.0,0.,12.0,0.,12.0,0.,12.0
1979-07-03 18:53:18.350 ,0,1,0.,12.0,0.,12.0,0.,12.0,0.,12.0
1979-07-03 18:53:30.350 ,0,1,0.,12.0,0.,12.0,0.,12.0,0.,12.0
1979-07-03 18:53:42.350 ,0,0,0.,12.0,0.,12.0,0.,12.0,0.,12.0
1979-07-03 18:53:54.350 ,0,0,0.,12.0,0.,12.0,0.,12.0,0.,12.0
1979-07-03 18:54:06.350 ,0,0,0.,12.0,0.,12.0,0.,12.0,0.,12.0
1979-07-03 18:54:18.350 ,0,0,0.,12.0,0.,12.0,0.,12.0,0.,12.0
1979-07-03 18:54:30.350 ,5,0,0.,12.0,0.,12.0,0.,12.0,0.,12.0
1979-07-03 18:54:42.350 ,5,0,0.,12.0,0.,12.0,0.,12.0,0.,12.0
1979-07-03 18:54:54.350 ,5,0,0.,12.0,0.,12.0,0.,12.0,0.,12.0
1979-07-03 18:55:06.350 ,5,0,0.,12.0,0.,12.0,0.,12.0,0.,12.0
1979-07-03 18:55:18.350 ,4,0,0.,12.0,0.,12.0,0.,12.0,0.,12.0
1979-07-03 18:55:30.350 ,4,0,0.,12.0,0.,12.0,0.,12.0,0.,12.0
1979-07-03 18:55:42.350 ,4,0,0.,12.0,0.,12.0,0.,12.0,0.,12.0
1979-07-03 18:55:54.350 ,4,0,0.,12.0,0.,12.0,0.,12.0,0.,12.0
1979-07-03 18:56:06.350 ,3,0,0.,12.0,0.,12.0,0.,12.0,0.,12.0
1979-07-03 18:56:18.350 ,3,0,0.,12.0,0.,12.0,0.,12.0,0.,12.0
1979-07-03 18:56:30.350 ,3,0,0.,12.0,0.,12.0,0.,12.0,0.,12.0
1979-07-03 18:56:42.350 ,3,0,0.,12.0,0.,12.0,0.,12.0,0.,12.0
1979-07-03 18:56:54.350 ,2,0,0.,12.0,0.,12.0,0.,12.0,0.,12.0
1979-07-03 18:57:06.350 ,2,0,0.,12.0,0.,12.0,0.,12.0,0.,12.0
1979-07-03 18:57:18.350 ,2,0,0.,12.0,0.,12.0,0.,12.0,0.,12.0
1979-07-03 18:57:30.350 ,2,0,0.,12.0,0.,12.0,0.,12.0,0.,12.0
1979-07-03 18:57:42.350 ,1,0,0.,12.0,0.,12.0,0.,12.0,0.,12.0
1979-07-03 18:57:54.350 ,1,0,0.,12.0,0.,12.0,0.,12.0,0.,12.0
1979-07-03 18:58:06.350 ,1,0,0.,12.0,0.,12.0,0.,12.0,0.,12.0
1979-07-03 18:58:18.350 ,1,0,0.,12.0,0.,12.0,0.,12.0,0.,12.0
1979-07-03 18:58:30.350 ,0,0,0.,12.0,0.,12.0,0.,12.0,0.,12.0
1979-07-03 18:58:42.350 ,0,0,0.,12.0,0.,12.0,0.,12.0,0.,12.0
1979-07-03 18:58:54.350 ,0,0,0.,12.0,0.,12.0,0.,12.0,0.,12.0
1979-07-03 18:59:06.350 ,0,0,0.,12.0,0.,12.0,0.,12.0,0.,12.0
1979-07-03 18:59:18.350 ,0,0,0.,12.0,0.,12.0,0.,12.0,0.,12.0
1979-07-03 18:59:30.350 ,0,0,0.,12.0,0.,12.0,0.,12.0,0.,12.0
1979-07-03 18:59:42.350 ,0,0,0.,12.0,0.,12.0,0.,12.0,0.,12.0
1979-07-03 18:59:54.350 ,0,0,0.,12.0,0.,12.0,0.,12.0,0.,12.0
1979-07-03 19:00:06.350 ,1,0,0.,12.0,0.,12.0,0.,12.0,0.,12.0
1979-07-03 19:00:18.350 ,1,0,0.,12.0,0.,12.0,0.,12.0,0.,12.0
1979-07-03 19:00:30.350 ,1,0,0.,12.0,0.,12.0,0.,12.0,0.,12.0
1979-07-03 19:00:42.350 ,1,0,0.,12.0,0.,12.0,0.,12.0,0.,12.0
1979-07-03 19:00:54.350 ,2,0,0.,12.0,0.,12.0,0.,12.0,0.,12.0
1979-07-03 19:01:06.350 ,2,0,0.,12.0,0.,12.0,0.,12.0,0.,12.0
1979-07-03 19:01:18.350 ,2,0,0.,12.0,0.,12.0,0.,12.0,0.,12.0
1979-07-03 19:01:30.350 ,2,0,0.,12.0,0.,12.0,0.,12.0,0.,12.0
1979-07-03 19:01:42.350 ,3,0,0.,12.0,0.,12.0,0.,12.0,0.,12.0
1979-07-03 19:01:54.350 ,3,0,0.,12.0,0.,12.0,0.,12.0,0.,12.0
1979-07-03 19:02:06.350 ,3,0,0.,12.0,0.,12.0,0.,12.0,0.,12.0
1979-07-03 19:02:18.350 ,3,0,0.,12.0,0.,12.0,0.,12.0,0.,12.0
1979-07-03 19:02:30.350 ,4,0,0.,12.0,0.,12.0,0.,12.0,0.,12.0
1979-07-03 19:02:42.350 ,4,0,0.,12.0,0.,12.0,0.,12.0,0.,12.0
1979-07-03 19:02:54.350 ,4,0,0.,12.0,0.,12.0,0.,12.0,0.,12.0
1979-07-03 19:03:06.350 ,4,0,0.,12.0,0.,12.0,0.,12.0,0.,12.0
1979-07-03 19:03:18.350 ,5,0,0.,12.0,0.,12.0,0.,12.0,0.,12.0
1979-07-03 19:03:30.350 ,5,0,0.,12.0,0.,12.0,0.,12.0,0.,12.0
1979-07-03 19:03:42.350 ,5,0,0.,12.0,0.,12.0,0.,12.0,0.,12.0
1979-07-03 19:03:54.350 ,5,0,0.,12.0,0.,12.0,0.,12.0,0.,12.0
1979-07-03 19:04:06.350 ,6,0,0.,12.0,0.,12.0,0.,12.0,0.,12.0
1979-07-03 19:04:18.350 ,6,0,0.,12.0,0.,12.0,0.,12.0,0.,12.0
1979-07-03 19:04:30.350 ,6,0,0.,12.0,0.,12.0,0.,12.0,0.,12.0
1979-07-03 19:04:42.350 ,6,0,0.,12.0,0.,12.0,0.,12.0,0.,12.0
1979-07-03 19:04:54.350 ,7,0,0.,12.0,0.,12.0,0.,12.0,0.,12.0
1979-07-03 19:05:06.350 ,7,0,0.,12.0,0.,12.0,0.,12.0,0.,12.0
1979-07-03 19:05:18.350 ,7,0,0.,12.0,0.,12.0,0.,12.0,0.,12.0
1979-07-03 19:05:30.350 ,7,0,0.,12.0,0.,12.0,0.,12.0,0.,12.0
1979-07-03 19:05:42.350 ,7,0,0.,12.0,0.,12.0,0.,12.0,0.,12.0
1979-07-03 19:05:54.350 ,7,0,0.,12.0,0.,12.0,0.,12.0,0.,12.0
1979-07-03 19:06:06.350 ,7,0,0.,12.0,0.,12.0,0.,12.0,0.,12.0
1979-07-03 19:06:18.350 ,7,0,0.,12.0,0.,12.0,0.,12.0,0.,12.0
1979-07-03 19:06:30.350 ,6,0,0.,12.0,0.,12.0,0.,12.0,0.,12.0
1979-07-03 19:06:42.350 ,6,0,0.,12.0,0.,12.0,0.,12.0,0.,12.0
1979-07-03 19:06:54.350 ,6,0,0.,12.0,0.,12.0,0.,12.0,0.,12.0
1979-07-03 19:07:06.350 ,6,0,0.,12.0,0.,12.0,0.,12.0,0.,12.0
1979-07-03 19:07:18.350 ,5,0,0.,12.0,0.,12.0,0.,12.0,0.,12.0
1979-07-03 19:07:30.350 ,5,0,0.,12.0,0.,12.0,0.,12.0,0.,12.0
1979-07-03 19:07:42.350 ,5,0,0.,12.0,0.,12.0,0.,12.0,0.,12.0
1979-07-03 19:07:54.350 ,5,0,0.,12.0,0.,12.0,0.,12.0,0.,12.0
1979-07-03 19:08:06.350 ,4,0,0.,12.0,0.,12.0,0.,12.0,0.,12.0
1979-07-03 19:08:18.350 ,4,0,0.,12.0,0.,12.0,0.,12.0,0.,12.0
1979-07-03 19:08:30.350 ,4,0,1.,12.0,0.,12.0,0.,12.0,0.,12.0
1979-07-03 19:08:42.350 ,4,0,0.,12.0,0.,12.0,0.,12.0,0.,12.0
1979-07-03 19:08:54.350 ,3,0,0.,12.0,0.,12.0,0.,12.0,0.,12.0
1979-07-03 19:09:06.350 ,3,0,0.,12.0,0.,12.0,0.,12.0,0.,12.0
1979-07-03 19:09:18.350 ,3,0,0.,12.0,0.,12.0,0.,12.0,0.,12.0
1979-07-03 19:09:30.350 ,3,0,0.,12.0,0.,12.0,0.,12.0,0.,12.0
1979-07-03 19:09:42.350 ,2,0,0.,12.0,0.,12.0,0.,12.0,0.,12.0
1979-07-03 19:09:54.350 ,2,0,0.,12.0,0.,12.0,0.,12.0,0.,12.0
1979-07-03 19:10:06.350 ,2,0,0.,12.0,0.,12.0,0.,12.0,0.,12.0
1979-07-03 19:10:18.350 ,2,0,0.,12.0,0.,12.0,0.,12.0,0.,12.0
1979-07-03 19:10:30.350 ,1,0,0.,12.0,0.,12.0,0.,12.0,0.,12.0
1979-07-03 19:10:42.350 ,1,0,0.,12.0,0.,12.0,0.,12.0,0.,12.0
1979-07-03 19:10:54.350 ,1,0,0.,12.0,0.,12.0,0.,12.0,0.,12.0
1979-07-03 19:11:06.350 ,1,0,0.,12.0,0.,12.0,0.,12.0,0.,12.0
1979-07-03 19:11:18.350 ,0,0,0.,12.0,0.,12.0,0.,12.0,0.,12.0
1979-07-03 19:11:30.350 ,0,0,0.,12.0,0.,12.0,0.,12.0,0.,12.0
1979-07-03 19:11:42.350 ,0,0,0.,12.0,0.,12.0,0.,12.0,0.,12.0
1979-07-03 19:11:54.350 ,0,0,0.,12.0,0.,12.0,0.,12.0,0.,12.0
1979-07-03 19:12:06.350 ,0,0,0.,12.0,0.,12.0,0.,12.0,0.,12.0
1979-07-03 19:12:18.350 ,0,0,0.,12.0,0.,12.0,0.,12.0,0.,12.0
1979-07-03 19:12:30.350 ,0,0,0.,12.0,0.,12.0,0.,12.0,0.,12.0
1979-07-03 19:12:42.350 ,0,0,0.,12.0,0.,12.0,0.,12.0,0.,12.0
1979-07-03 19:12:54.350 ,1,0,0.,12.0,0.,12.0,0.,12.0,0.,12.0
1979-07-03 19:13:06.350 ,1,0,0.,12.0,0.,12.0,0.,12.0,0.,12.0
1979-07-03 19:13:18.350 ,1,0,0.,12.0,0.,12.0,0.,12.0,0.,12.0
1979-07-03 19:13:30.350 ,1,0,0.,12.0,0.,12.0,0.,12.0,0.,12.0
1979-07-03 19:13:42.350 ,2,0,0.,12.0,0.,12.0,0.,12.0,0.,12.0
1979-07-03 19:13:54.350 ,2,0,0.,12.0,0.,12.0,0.,12.0,0.,12.0
1979-07-03 19:14:06.350 ,2,0,0.,12.0,0.,12.0,0.,12.0,0.,12.0
1979-07-03 19:14:18.350 ,2,0,0.,12.0,0.,12.0,0.,12.0,0.,12.0
1979-07-03 19:14:30.350 ,3,0,0.,12.0,0.,12.0,0.,12.0,0.,12.0
1979-07-03 19:14:42.350 ,3,0,0.,12.0,0.,12.0,0.,12.0,0.,12.0
1979-07-03 19:14:54.350 ,3,0,0.,12.0,0.,12.0,0.,12.0,0.,12.0
1979-07-03 19:15:06.350 ,3,0,0.,12.0,0.,12.0,0.,12.0,0.,12.0
1979-07-03 19:15:18.350 ,4,0,0.,12.0,0.,12.0,0.,12.0,0.,12.0
1979-07-03 19:15:30.350 ,4,0,0.,12.0,0.,12.0,0.,12.0,0.,12.0
1979-07-03 19:15:42.350 ,4,0,0.,12.0,0.,12.0,0.,12.0,0.,12.0
1979-07-03 19:15:54.350 ,4,0,0.,12.0,0.,12.0,0.,12.0,0.,12.0
1979-07-03 19:16:06.350 ,5,0,0.,12.0,0.,12.0,0.,12.0,0.,12.0
1979-07-03 19:16:18.350 ,5,0,0.,12.0,0.,12.0,0.,12.0,0.,12.0
1979-07-03 19:16:30.350 ,5,0,0.,12.0,0.,12.0,0.,12.0,0.,12.0
1979-07-03 19:16:42.350 ,5,0,0.,12.0,0.,12.0,0.,12.0,0.,12.0
1979-07-03 19:16:54.350 ,6,0,0.,12.0,0.,12.0,0.,12.0,0.,12.0
1979-07-03 19:17:06.350 ,6,0,0.,12.0,0.,12.0,0.,12.0,0.,12.0
1979-07-03 19:17:18.350 ,6,0,0.,12.0,0.,12.0,0.,12.0,0.,12.0
1979-07-03 19:17:30.350 ,6,0,0.,12.0,0.,12.0,0.,12.0,0.,12.0
1979-07-03 19:17:42.350 ,7,0,0.,12.0,0.,12.0,0.,12.0,0.,12.0
1979-07-03 19:17:54.350 ,7,0,0.,12.0,0.,12.0,0.,12.0,0.,12.0
1979-07-03 19:18:06.350 ,7,0,0.,12.0,0.,12.0,0.,12.0,0.,12.0
1979-07-03 19:18:18.350 ,7,0,0.,12.0,0.,12.0,0.,12.0,0.,12.0
1979-07-03 19:18:30.350 ,7,0,0.,12.0,0.,12.0,0.,12.0,0.,12.0
1979-07-03 19:18:42.350 ,7,0,0.,12.0,0.,12.0,0.,12.0,0.,12.0
1979-07-03 19:18:54.350 ,7,0,0.,12.0,0.,12.0,0.,12.0,0.,12.0
1979-07-03 19:19:06.350 ,7,0,0.,12.0,0.,12.0,0.,12.0,0.,12.0
1979-07-03 19:19:18.350 ,6,0,0.,12.0,0.,12.0,0.,12.0,0.,12.0
1979-07-03 19:19:30.350 ,6,0,0.,12.0,0.,12.0,0.,12.0,0.,12.0
1979-07-03 19:19:42.350 ,6,0,0.,12.0,0.,12.0,0.,12.0,0.,12.0
1979-07-03 19:19:54.350 ,6,0,0.,12.0,0.,12.0,0.,12.0,0.,12.0
1979-07-03 19:20:06.350 ,5,0,0.,12.0,0.,12.0,0.,12.0,0.,12.0
1979-07-03 19:20:18.350 ,5,0,0.,12.0,0.,12.0,0.,12.0,0.,12.0
1979-07-03 19:20:30.350 ,5,0,0.,12.0,0.,12.0,0.,12.0,0.,12.0
1979-07-03 19:20:42.350 ,5,0,0.,12.0,0.,12.0,0.,12.0,0.,12.0
1979-07-03 19:20:54.350 ,4,0,0.,12.0,0.,12.0,0.,12.0,0.,12.0
1979-07-03 19:21:06.350 ,4,0,0.,12.0,0.,12.0,0.,12.0,0.,12.0
1979-07-03 19:21:18.350 ,4,0,0.,12.0,0.,12.0,0.,12.0,0.,12.0
1979-07-03 19:21:30.350 ,4,0,0.,12.0,0.,12.0,0.,12.0,0.,12.0
1979-07-03 19:21:42.350 ,3,0,0.,12.0,0.,12.0,0.,12.0,0.,12.0
1979-07-03 19:21:54.350 ,3,0,0.,12.0,0.,12.0,0.,12.0,0.,12.0
1979-07-03 19:22:06.350 ,3,0,0.,12.0,0.,12.0,0.,12.0,0.,12.0
1979-07-03 19:22:18.350 ,3,0,0.,12.0,0.,12.0,0.,12.0,0.,12.0
1979-07-03 19:22:30.350 ,2,0,0.,12.0,0.,12.0,0.,12.0,0.,12.0
1979-07-03 19:22:42.350 ,2,0,0.,12.0,0.,12.0,0.,12.0,0.,12.0
1979-07-03 19:22:54.350 ,2,0,0.,12.0,0.,12.0,0.,12.0,0.,12.0
1979-07-03 19:23:06.350 ,2,0,0.,12.0,0.,12.0,0.,12.0,0.,12.0
1979-07-03 19:23:18.350 ,1,0,0.,12.0,0.,12.0,0.,12.0,0.,12.0
1979-07-03 19:23:30.350 ,1,0,0.,12.0,0.,12.0,0.,12.0,0.,12.0
1979-07-03 19:23:42.350 ,1,0,0.,12.0,0.,12.0,0.,12.0,0.,12.0
1979-07-03 19:23:54.350 ,1,0,0.,12.0,0.,12.0,0.,12.0,0.,12.0
1979-07-03 19:24:06.350 ,0,0,0.,12.0,0.,12.0,0.,12.0,0.,12.0
1979-07-03 19:24:18.350 ,0,0,0.,12.0,0.,12.0,0.,12.0,0.,12.0